This demonstration page uses our WeatherBlox Daily Observations layout. Learn more.

39.92423, -83.80882

Hourly Observations for April 21, 2019

Temp ( °F °C ) Dew Point ( °F °C ) Humidity (%) Winds ( mph kmh ) Pressure ( in mb ) Visibility ( mi km ) Precip ( " mm )
12:56 am 00:56 Cloudy 42 5.6 40 4.4 92 92 W 7 11 29.88 1012 10 16.0934 0.01 0.254
1:56 am 01:56 Cloudy 41 5 39 3.9 93 93 NW 7 11 29.91 1013 10 16.0934 0 0
2:56 am 02:56 Cloudy 41 5 39 3.9 93 93 Calm 29.93 1013 10 16.0934 0 0
4:56 am 04:56 Cloudy 41 5 39 3.9 93 93 WNW 3 6 29.96 1015 10 16.0934 0 0
5:56 am 05:56 Cloudy 41 5 38 3.3 89 89 SW 3 6 29.98 1015 10 16.0934 0 0
6:56 am 06:56 Cloudy 41 5 40 4.4 96 96 SSW 6 9 30 1016 10 16.0934 0 0
7:56 am 07:56 Cloudy 42 5.6 40 4.4 92 92 SW 6 9 30.04 1017 10 16.0934 0 0
8:56 am 08:56 Cloudy 43 6.1 40 4.4 89 89 WSW 8 13 30.07 1018 10 16.0934 0 0
9:56 am 09:56 Cloudy 44 6.7 41 5 89 89 SW 6 9 30.08 1019 10 16.0934 0 0
10:56 am 10:56 Cloudy 46 7.8 42 5.6 86 86 W 6 9 30.1 1019 10 16.0934 0 0
11:56 am 11:56 Cloudy 49 9.4 43 6.1 80 80 W 7 11 30.12 1020 10 16.0934 0 0
12:56 pm 12:56 Cloudy 51 10.6 45 7.2 80 80 VRB 5 7 30.12 1020 10 16.0934 0 0
1:56 pm 13:56 Partly Cloudy 53 11.7 45 7.2 74 74 NE 3 6 30.11 1020 10 16.0934 0 0
2:56 pm 14:56 Mostly Cloudy 57 13.9 47 8.3 69 69 NNW 8 13 30.13 1020 10 16.0934 0 0
3:49 pm 15:49 Partly Cloudy 57 14 46 8 67 67 NNE 7 11 30.11 1019 10 16.0934 0 0
3:56 pm 15:56 Mostly Sunny 58 14.4 47 8.3 67 67 VRB 5 7 30.12 1020 10 16.0934 0 0
4:42 pm 16:42 Mostly Cloudy 61 16 48 9 63 63 WNW 7 11 30.1 1019 10 16.0934 0 0
4:56 pm 16:56 Mostly Cloudy 59 15 46 7.8 62 62 Calm 30.13 1020 10 16.0934 0 0
5:56 pm 17:56 Sunny 60 15.6 47 8.3 62 62 N 3 6 30.13 1020 10 16.0934 0 0
6:56 pm 18:56 Mostly Cloudy 60 15.6 46 7.8 60 60 E 5 7 30.14 1021 10 16.0934 0 0
7:56 pm 19:56 Mostly Sunny 57 13.9 45 7.2 64 64 E 5 7 30.15 1021 10 16.0934 0 0
8:56 pm 20:56 Clear 53 11.7 46 7.8 77 77 ESE 6 9 30.17 1022 10 16.0934 0 0
9:56 pm 21:56 Clear 50 10 47 8.3 89 89 ESE 9 15 30.19 1023 10 16.0934 0 0
10:56 pm 22:56 Clear 48 8.9 46 7.8 93 93 SE 7 11 30.2 1023 10 16.0934 0 0
11:56 pm 23:56 Clear 48 8.9 46 7.8 93 93 SE 8 13 30.2 1023 10 16.0934 0.01 0.254

Powered by AerisWeather